Location: Altleiningen
(49.5078°N, 8.0741°E)
Time: 05:28:03
(UTC+00:00)

Cosmos 1953 - Pass Details

Date: 14 June 2025
Orbit: 485 x 500 km, 82.5° (Epoch: 12 July)

Event Time Altitude Azimuth Distance (km) Brightness Sun altitude
Rises 22:23:04 0° 340° (NNW) 2,603 7.6 -15.8°
Reaches altitude 10° 22:25:23 10° 329° (NNW) 1,716 6.1 -15.9°
Maximum altitude 22:28:38 28° 269° (W) 961 3.7 -16.0°
Enters shadow 22:30:40 18° 222° (SW) 1,307 3.9 -16.1°
